PALISADE

Last updated on Sun Nov 17 2019 00:02:03 GMT+0000 (Coordinated Universal Time)

1 44634U 19069A 19320.21369722 .00000514 00000-0 14058-2 0 9993 2 44634 87.8969 37.6118 0010541 50.6482 309.5579 13.11820216 3963
UTC large
Height (km)
Speed (km/s)
/
Latitude / Longitude
Inclination (degrees)
Orbital Period (minutes)
Azimuth
Elevation
Range (km)
Doppler Factor

Next 0 passes for location: London (51.5072 / 0.1276)

Sorry there are no passes over London.
PALISADE